Location: ??
(35.4032°N, 139.3073°E)
Time: 07:06:29
(UTC+00:00)

Cosmos 1515 Rocket - Visible Passes

Search period start: 22 July 2024 00:00
Search period end: 01 August 2024 00:00
Orbit: 604 x 625 km, 82.5° (Epoch: 21 July)

Date Brightness Start Highest point End Pass type
(mag) Time Alt. Az. Time Alt. Az. Time Alt. Az.
22 Jul 5.9 16:27:01 10° NNE 16:29:57 17° ENE 16:31:18 15° E visible
22 Jul 4.3 18:03:51 10° NNW 18:07:46 32° W 18:08:19 31° WSW visible
23 Jul 5.0 16:42:03 10° NNE 16:45:59 31° ENE 16:46:28 30° E visible
23 Jul 5.2 18:20:33 10° NW 18:23:27 17° W 18:23:29 17° W visible
24 Jul 4.0 16:57:33 10° N 17:01:42 59° ENE 17:01:42 59° ENE visible
25 Jul 3.9 17:13:23 10° NNW 17:16:57 55° NW 17:16:57 55° NW visible
26 Jul 6.1 15:52:59 10° NE 15:55:14 16° ENE 15:55:14 16° ENE visible
26 Jul 4.8 17:29:31 10° NNW 17:32:16 29° NW 17:32:16 29° NW visible
27 Jul 5.6 16:07:52 10° NNE 16:10:34 25° NE 16:10:34 25° NE visible
27 Jul 5.5 17:46:06 10° NW 17:47:35 16° WNW 17:47:35 16° WNW visible
28 Jul 5.2 16:23:19 10° N 16:25:55 33° NNE 16:25:55 33° NNE visible
29 Jul 5.2 16:39:05 10° N 16:41:18 29° NNW 16:41:18 29° NNW visible
30 Jul 6.4 15:18:57 10° NE 15:19:41 12° NE 15:19:41 12° NE visible
30 Jul 5.6 16:55:10 10° NNW 16:56:42 20° NW 16:56:42 20° NW visible
31 Jul 6.2 15:33:41 10° NNE 15:35:07 17° NE 15:35:07 17° NE visible
31 Jul 6.0 17:11:39 10° NW 17:12:09 12° NW 17:12:09 12° NW visible
